This demonstration page uses our WeatherBlox Daily Observations layout. Learn more.

Left ArrowRight Arrow

39.92423, -83.80882

Hourly Observations for March 6, 2021

Temp ( °F °C ) Dew Point ( °F °C ) Humidity (%) Winds ( mph kmh ) Pressure ( in mb ) Visibility ( mi km ) Precip ( " mm )
12:56 am 00:56 Clear 30 -1.1 25 -3.9 82 82 NW 10 17 30.26 1025 10 16.0934 0 0
1:56 am 01:56 Clear 29 -1.7 24 -4.4 82 82 NW 9 15 30.27 1025 10 16.0934 0 0
2:56 am 02:56 Clear 27 -2.8 23 -5 85 85 NW 9 15 30.27 1025 10 16.0934 0 0
3:56 am 03:56 Clear 26 -3.3 22 -5.6 84 84 NW 6 9 30.27 1025 10 16.0934 0 0
4:56 am 04:56 Clear 24 -4.4 20 -6.7 84 84 WNW 6 9 30.28 1026 10 16.0934 0 0
5:56 am 05:56 Clear 24 -4.4 21 -6.1 88 88 WNW 7 11 30.3 1026 10 16.0934 0 0
6:56 am 06:56 Clear 23 -5 20 -6.7 88 88 WNW 5 7 30.33 1027 10 16.0934 0 0
7:56 am 07:56 Sunny 26 -3.3 22 -5.6 84 84 NNW 6 9 30.34 1027 10 16.0934 0 0
8:56 am 08:56 Sunny 29 -1.7 23 -5 78 78 N 9 15 30.35 1028 10 16.0934 0 0
9:56 am 09:56 Sunny 32 0 20 -6.7 61 61 N 8 13 30.36 1028 10 16.0934 0 0
10:56 am 10:56 Sunny 35 1.7 17 -8.3 48 48 N 8 13 30.35 1028 10 16.0934 0 0
11:56 am 11:56 Sunny 38 3.3 16 -8.9 41 41 NNW 7 11 30.35 1028 10 16.0934 0 0
12:56 pm 12:56 Sunny 39 3.9 16 -8.9 39 39 NNW 8 13 30.34 1028 10 16.0934 0 0
1:56 pm 13:56 Sunny 41 5 15 -9.4 35 35 NW 10 17 30.32 1027 10 16.0934 0 0
2:56 pm 14:56 Sunny 41 5 15 -9.4 35 35 WNW 13 20 30.31 1026 10 16.0934 0 0
3:56 pm 15:56 Sunny 42 5.6 15 -9.4 33 33 WNW 13 20 30.3 1026 10 16.0934 0 0
4:56 pm 16:56 Sunny 41 5 17 -8.3 38 38 NW 14 22 30.3 1026 10 16.0934 0 0
5:56 pm 17:56 Sunny 40 4.4 16 -8.9 38 38 WNW 12 19 30.29 1026 10 16.0934 0 0
6:56 pm 18:56 Clear 35 1.7 17 -8.3 48 48 WNW 7 11 30.32 1027 10 16.0934 0 0
7:56 pm 19:56 Clear 34 1.1 17 -8.3 50 50 W 5 7 30.31 1026 10 16.0934 0 0
8:56 pm 20:56 Clear 32 0 19 -7.2 59 59 W 5 7 30.31 1026 10 16.0934 0 0
9:56 pm 21:56 Clear 32 0 20 -6.7 61 61 W 5 7 30.3 1026 10 16.0934 0 0
10:56 pm 22:56 Clear 30 -1.1 21 -6.1 69 69 WSW 6 9 30.29 1026 10 16.0934 0 0
11:56 pm 23:56 Clear 28 -2.2 20 -6.7 72 72 NW 5 7 30.29 1026 10 16.0934 0 0

Powered by AerisWeather